N447BF MDJB-MDJB

Flight info

Callsign N447BF
Flight time N/A
Altitude 4000
Route VFR
Aircraft B407/L-SFG/C

Departure

Time 2026-05-06 02:27
Airport La Isabela International Airport (MDJB)

Arrival

Time N/A
Airport La Isabela International Airport (MDJB)
Time Latitude Longitude Altitude Speed Heading
2026-05-06 02:24 18.45365 -69.92084 51 ft 0 kts 82°
2026-05-06 02:25 18.45379 -69.92063 54 ft 12 kts 297°
2026-05-06 02:26 18.45264 -69.92179 127 ft 42 kts 212°
2026-05-06 02:26 18.44940 -69.92020 328 ft 68 kts 101°
2026-05-06 02:26 18.45194 -69.91342 369 ft 132 kts 68°
2026-05-06 02:26 18.45537 -69.90409 441 ft 127 kts 71°
2026-05-06 02:27 18.45780 -69.89498 716 ft 130 kts 73°
2026-05-06 02:27 18.45995 -69.88678 1211 ft 117 kts 77°
2026-05-06 02:27 18.46133 -69.87805 1442 ft 121 kts 85°
2026-05-06 02:27 18.46186 -69.86921 1702 ft 124 kts 88°
2026-05-06 02:28 18.46237 -69.85974 1807 ft 131 kts 87°
2026-05-06 02:28 18.46255 -69.85012 1801 ft 132 kts 93°
2026-05-06 02:28 18.46174 -69.84053 1789 ft 133 kts 96°
2026-05-06 02:28 18.46065 -69.83084 1777 ft 134 kts 98°
2026-05-06 02:29 18.45937 -69.82097 1772 ft 136 kts 99°
2026-05-06 02:29 18.45797 -69.81107 1774 ft 137 kts 99°
2026-05-06 02:29 18.45647 -69.80125 1777 ft 138 kts 100°
2026-05-06 02:29 18.45485 -69.79124 1778 ft 139 kts 101°
2026-05-06 02:30 18.45311 -69.78111 1778 ft 141 kts 102°
2026-05-06 02:30 18.45128 -69.77094 1778 ft 142 kts 102°
2026-05-06 02:30 18.44952 -69.76068 1779 ft 143 kts 101°
2026-05-06 02:30 18.44782 -69.75031 1778 ft 144 kts 101°
2026-05-06 02:31 18.44606 -69.73999 1778 ft 145 kts 102°
2026-05-06 02:31 18.44421 -69.72954 1767 ft 144 kts 102°
2026-05-06 02:31 18.44229 -69.71935 1758 ft 143 kts 103°
2026-05-06 02:31 18.44018 -69.70897 1766 ft 143 kts 104°
2026-05-06 02:32 18.43800 -69.69874 1774 ft 144 kts 105°
2026-05-06 02:32 18.43574 -69.68840 1760 ft 143 kts 105°
2026-05-06 02:32 18.43344 -69.67838 1754 ft 141 kts 106°
2026-05-06 02:32 18.43098 -69.66834 1766 ft 141 kts 107°
2026-05-06 02:33 18.42850 -69.65847 1767 ft 140 kts 107°
2026-05-06 02:33 18.42680 -69.65183 1771 ft 140 kts 108°
2026-05-06 02:33 18.42082 -69.62860 1779 ft 142 kts 106°
2026-05-06 02:34 18.41890 -69.61833 1779 ft 143 kts 101°
2026-05-06 02:34 18.41771 -69.60795 1750 ft 140 kts 98°
2026-05-06 02:34 18.41672 -69.59803 1750 ft 136 kts 100°
2026-05-06 02:34 18.41556 -69.58821 1776 ft 135 kts 101°
2026-05-06 02:35 18.41438 -69.57835 1785 ft 136 kts 101°
2026-05-06 02:35 18.41389 -69.56838 1784 ft 137 kts 93°
2026-05-06 02:35 18.41427 -69.55833 1784 ft 139 kts 90°
2026-05-06 02:35 18.41491 -69.54815 1782 ft 140 kts 89°
2026-05-06 02:36 18.41522 -69.53797 1781 ft 139 kts 93°
2026-05-06 02:36 18.41515 -69.52772 1780 ft 139 kts 94°
2026-05-06 02:36 18.41500 -69.51749 1780 ft 139 kts 94°
2026-05-06 02:36 18.41484 -69.50729 1780 ft 140 kts 94°
2026-05-06 02:37 18.41466 -69.49700 1780 ft 140 kts 94°
2026-05-06 02:37 18.41449 -69.48679 1780 ft 140 kts 94°
2026-05-06 02:37 18.41431 -69.47665 1780 ft 140 kts 94°
2026-05-06 02:37 18.41412 -69.46640 1780 ft 140 kts 94°
2026-05-06 02:38 18.41393 -69.45613 1780 ft 140 kts 94°
2026-05-06 02:38 18.41373 -69.44588 1780 ft 140 kts 94°
2026-05-06 02:38 18.41352 -69.43574 1781 ft 140 kts 95°
2026-05-06 02:38 18.41331 -69.42550 1781 ft 140 kts 95°
2026-05-06 02:39 18.41308 -69.41529 1781 ft 140 kts 95°
2026-05-06 02:39 18.41284 -69.40508 1782 ft 140 kts 94°
2026-05-06 02:39 18.41338 -69.39488 1782 ft 139 kts 87°
2026-05-06 02:39 18.41464 -69.38469 1784 ft 140 kts 85°
2026-05-06 02:40 18.41605 -69.37449 1785 ft 139 kts 85°
2026-05-06 02:40 18.41682 -69.36459 1785 ft 137 kts 89°
2026-05-06 02:40 18.41706 -69.35783 1791 ft 137 kts 90°
2026-05-06 02:40 18.41730 -69.34777 1795 ft 137 kts 91°
2026-05-06 02:41 18.41758 -69.33446 1796 ft 138 kts 91°
2026-05-06 02:41 18.41772 -69.32765 1796 ft 138 kts 91°
2026-05-06 02:41 18.41793 -69.31770 1796 ft 138 kts 91°
2026-05-06 02:41 18.41814 -69.30763 1795 ft 138 kts 91°
2026-05-06 02:42 18.41835 -69.29755 1795 ft 138 kts 91°
2026-05-06 02:42 18.41856 -69.28746 1795 ft 138 kts 91°
2026-05-06 02:42 18.41877 -69.27735 1795 ft 138 kts 91°
2026-05-06 02:42 18.41898 -69.26713 1795 ft 138 kts 91°
2026-05-06 02:43 18.41918 -69.25720 1795 ft 138 kts 91°
2026-05-06 02:43 18.41939 -69.24710 1795 ft 138 kts 91°
2026-05-06 02:43 18.41959 -69.23697 1795 ft 138 kts 91°
2026-05-06 02:43 18.41979 -69.22689 1795 ft 138 kts 91°
2026-05-06 02:44 18.41999 -69.21679 1795 ft 138 kts 91°
2026-05-06 02:44 18.42018 -69.20668 1795 ft 138 kts 91°
2026-05-06 02:44 18.42037 -69.19658 1796 ft 138 kts 91°
2026-05-06 02:44 18.42054 -69.18650 1796 ft 138 kts 91°
2026-05-06 02:45 18.42071 -69.17639 1796 ft 138 kts 91°
2026-05-06 02:45 18.42086 -69.16630 1797 ft 138 kts 91°
2026-05-06 02:45 18.42101 -69.15623 1797 ft 138 kts 91°
2026-05-06 02:45 18.42113 -69.14612 1798 ft 138 kts 91°
2026-05-06 02:46 18.42123 -69.13622 1799 ft 137 kts 90°
2026-05-06 02:46 18.42122 -69.12613 1803 ft 137 kts 91°
2026-05-06 02:46 18.42116 -69.11613 1806 ft 137 kts 91°
2026-05-06 02:46 18.42028 -69.10622 1798 ft 134 kts 106°
2026-05-06 02:47 18.41631 -69.09735 1810 ft 135 kts 119°
2026-05-06 02:47 18.41138 -69.08886 1811 ft 136 kts 121°
2026-05-06 02:47 18.40651 -69.08041 1806 ft 133 kts 117°
2026-05-06 02:47 18.40260 -69.07168 1808 ft 131 kts 114°
2026-05-06 02:48 18.39897 -69.06283 1807 ft 132 kts 112°
2026-05-06 02:48 18.39672 -69.05417 1781 ft 124 kts 97°
2026-05-06 02:48 18.39548 -69.04497 1677 ft 129 kts 96°
2026-05-06 02:48 18.39461 -69.03563 1524 ft 126 kts 90°
2026-05-06 02:49 18.39474 -69.02644 1426 ft 128 kts 83°
2026-05-06 02:49 18.39520 -69.01696 1170 ft 132 kts 83°
2026-05-06 02:49 18.39573 -69.00741 942 ft 131 kts 83°
2026-05-06 02:49 18.39639 -68.99812 640 ft 124 kts 84°
2026-05-06 02:50 18.39678 -68.99324 430 ft 117 kts 79°
2026-05-06 02:50 18.39860 -68.98558 247 ft 102 kts 56°
2026-05-06 02:50 18.40284 -68.98554 172 ft 66 kts 286°
2026-05-06 02:50 18.40340 -68.98820 53 ft 13 kts 276°
2026-05-06 02:51 18.40352 -68.98845 21 ft 1 kts 99°
2026-05-06 02:51 18.40351 -68.98840 16 ft 1 kts 106°
2026-05-06 02:51 18.40351 -68.98836 13 ft 0 kts 101°